Regional Weather Roundup
Issued by NWS

Home | Current Version | Previous Version | Graphics & Text | Print | Product List | Glossary On
Versions: 1 2 3 4 5 6 7 8 9 10 11 12 13 14 15 16 17 18 19 20 21 22 23 24 25 26 27 28 29 30 31 32 33 34 35 36 37 38 39 40 41 42 43 44 45 46 47 48 49 50
188
ASUS43 KIND 021009
RWRIN

WEATHER ROUNDUP FOR INDIANA
NATIONAL WEATHER SERVICE INDIANAPOLIS IN
600 AM EDT MON MAY 02 2016

NOTE: "FAIR" INDICATES FEW OR NO CLOUDS BELOW 12,000 FEET WITH NO
SIGNIFICANT WEATHER AND/OR OBSTRUCTIONS TO VISIBILITY.

* - STATION DOES NOT REPORT WEATHER SUCH AS PRECIPITATION OR FOG.

+ - STATION NOT QUALITY CONTROLLED BY THE NATIONAL WEATHER SERVICE.
    USE DATA WITH CAUTION...ESPECIALLY DEWPOINT AND RELATIVE
    HUMIDITY OBSERVATIONS.

INZ001>003-010>013-019-020-021100-
NORTHWEST INDIANA

CITY           SKY/WX    TMP DP  RH WIND       PRES   REMARKS
GARY /AIRPORT/ CLOUDY    45  45 100 N14       30.03R
KNOX *+        CLOUDY    45  43  93 N10       29.97S
LA PORTE +     CLOUDY    47  47 100 N8        29.99S
MICHIGAN CITY+ CLOUDY    45  45 100 N7        30.01R
MONTICELLO +   CLOUDY    50  46  87 N10       29.95R
RENSSELAER +   CLOUDY    46  46 100 N9        29.97R
VALPARAISO     CLOUDY    46  44  93 N8        29.99R

$$

LMZ046-743>745-021100-
SOUTHERN LAKE MICHIGAN

STATION/POSITION TIME  TEMP    WIND        PRES    WAVE
                       AIR SEA DIR/SP/G            HT
                 (UTC) (F)     (DEG/KT/KT) (MB)    (FT)
BURNS HARBOR     0921   44      20/ 17/ 22 1016.3R
MICHIGAN CITY    0900   45      10/ 18/ 19   N/A

$$

INZ004-005-014>016-021>024-021100-
NORTH CENTRAL INDIANA

CITY           SKY/WX    TMP DP  RH WIND       PRES   REMARKS
GOSHEN         LGT RAIN  46  44  93 N9        29.97R FOG
LOGANSPORT +   CLOUDY    52  50  93 CALM      29.95R
PERU/GRISSOM   CLOUDY    51  51 100 NE8       29.93R
ROCHESTER +    CLOUDY    50  50 100 N9        29.95S FOG
SOUTH BEND     CLOUDY    44  42  93 N9        29.99R
WARSAW +       CLOUDY    45  45 100 N8        29.96R

$$

INZ006>009-017-018-025>027-021100-
NORTHEAST INDIANA

CITY           SKY/WX    TMP DP  RH WIND       PRES   REMARKS
ANGOLA *+      CLOUDY    45  34  65 CALM      29.96S
AUBURN +       CLOUDY    46  45  93 N7        29.97R
FORT WAYNE     DRIZZLE   50  47  89 NE7       29.95R FOG
HUNTINGTON +   CLOUDY   N/A N/A N/A E7        29.93F

$$

INZ028-029-035-036-043>045-051>053-021100-
WEST CENTRAL INDIANA

CITY           SKY/WX    TMP DP  RH WIND       PRES   REMARKS
CRAWFORDSVL +  CLOUDY    48  48 100 NW12      29.96R FOG
GREENCASTLE +  CLOUDY    52  50  93 W6        29.96S
LAFAYETTE      CLOUDY    49  49 100 NW7       29.95S FOG
TERRE HAUTE    CLOUDY    53  47  79 W7        29.98R

$$

INZ030>032-037>040-046>048-054>057-064-065-021100-
CENTRAL INDIANA

CITY           SKY/WX    TMP DP  RH WIND       PRES   REMARKS
CP ATTERBURY + MOCLDY    55  54  94 NW6       29.94S
FISHERS *+     CLOUDY    54  54 100 W8        29.94R
FRANKFORT +    FOG       51  51 100 NW10      29.96S VSB 1/2
GREENWOOD *+   CLOUDY    55  54  94 W5        29.94S
INDIANAPOLIS   CLOUDY    54  51  90 NW13      29.93R
-EAGLE CREEK   CLOUDY    54  52  93 NW13      29.93R
KOKOMO *+      CLOUDY    52  48  87 NE7       29.93R
MARION +       CLOUDY    51  50  95 NE6       29.94S
SHELBYVILLE    CLOUDY    60  55  83 W6        29.92S
ZIONSVILLE +   FOG       51  51  99 NW8       29.95R VSB 3/4

$$

INZ033-034-041-042-049-050-058-059-021100-
EAST CENTRAL INDIANA

CITY           SKY/WX    TMP DP  RH WIND       PRES   REMARKS
MUNCIE         CLOUDY    54  52  93 N6        29.93R FOG

$$

INZ060-061-067>069-081>083-085>088-021100-
SOUTHWEST INDIANA

CITY           SKY/WX    TMP DP  RH WIND       PRES   REMARKS
EVANSVILLE     CLEAR     54  51  90 SW7       30.02R
HUNTINGBURG *+ PTCLDY    54  50  87 W6        30.00R
WASHINGTON +   PTCLDY    54  53  95 NW8       29.98R

$$

INZ062-063-066-070>080-084-089>092-021100-
SOUTH CENTRAL AND SOUTHEAST INDIANA

CITY           SKY/WX    TMP DP  RH WIND       PRES   REMARKS
BEDFORD +      MOCLDY    54  54 100 NW5       29.95S
BLOOMINGTON    CLOUDY    54  49  83 VRB7      29.95S
MADISON *+     CLOUDY    59  55  88 SW6       29.96R
NORTH VERNON + PTCLDY   N/A N/A N/A CALM      29.93S HAZE
SEYMOUR +      CLEAR     57  55  94 CALM      29.94S

$$





USA.gov is the U.S. government's official web portal to all federal, state and local government web resources and services.